{"data":{"norad_id":66131,"epoch":"2026-05-25T03:07:15.690144Z","epoch_age_seconds":67124,"freshness":"FRESH","line1":"1 66131U 25237T   26145.13004271  .00032190  00000+0  10959-2 0  9992","line2":"2 66131  53.1594  44.5809 0001435  90.3955 269.7210 15.30150734 34317","mean_motion":15.30150734,"eccentricity":0.0001435,"inclination_deg":53.1594,"raan_deg":44.5809,"arg_perigee_deg":90.3955,"mean_anomaly_deg":269.721,"bstar":0.0010959,"rev_number":3431,"period_min":94.108375600073,"perigee_km":474.37869563054,"apogee_km":476.34564989312,"semimajor_km":6853.4991727618,"source":"CELESTRAK","updated_at":"2026-05-25T13:38:21.065542Z"}}